Location: USNO
(38.9242°N, 77.0663°W)
Time: 16:57:30
(UTC-05:00)

Vanguard 1 Rocket - Visible Passes

Search period start: 22 January 2018 00:00
Search period end: 01 February 2018 00:00
Orbit: 656 x 4221 km, 34.3° (Epoch: 21 January)

Date Brightness Start Highest point End Pass type
(mag) Time Alt. Az. Time Alt. Az. Time Alt. Az.
22 Jan 10.8 03:51:33 10° SSW 04:06:24 26° SSE 04:15:58 10° E visible
22 Jan 9.6 06:19:34 10° SW 06:34:15 49° SSE 06:41:57 10° E visible
23 Jan 11.2 02:40:35 10° S 02:53:26 19° SE 03:02:54 10° ESE visible
23 Jan 10.1 05:05:31 10° SW 05:22:08 42° SSE 05:31:17 10° E visible
24 Jan 11.6 01:34:02 10° SSE 01:40:08 12° SE 01:45:34 10° SE visible
24 Jan 10.6 03:52:04 10° SSW 04:09:31 34° SSE 04:20:03 10° E visible
24 Jan 9.4 06:21:47 10° WSW 06:37:27 57° SSE 06:45:26 10° E visible
25 Jan 11.0 02:46:45 19° S 02:56:27 26° SSE 03:07:49 10° E visible
25 Jan 9.9 05:07:12 10° SW 05:25:17 50° SSE 05:34:51 10° E visible
26 Jan 11.4 01:41:27 18° SSE 01:43:07 18° SE 01:53:33 10° ESE visible
26 Jan 10.3 03:58:55 20° SSW 04:12:33 42° SSE 04:23:49 10° E visible
26 Jan 9.3 06:24:12 10° WSW 06:40:38 64° S 06:48:51 10° E visible
27 Jan 10.8 02:53:06 28° S 02:59:24 33° SSE 03:12:02 10° E visible
27 Jan 9.7 05:10:30 12° SW 05:28:22 58° SSE 05:38:19 10° E visible
28 Jan 11.2 01:46:56 24° SE 01:46:56 24° SE 01:58:52 10° E visible
28 Jan 10.2 04:04:19 28° SSW 04:15:33 49° SSE 04:27:23 10° E visible
28 Jan 9.3 06:26:45 10° WSW 06:43:47 69° S 06:52:14 10° E visible
29 Jan 11.6 00:40:32 12° ESE 00:40:32 12° ESE 00:42:43 10° ESE visible
29 Jan 10.6 02:57:54 37° S 03:02:15 40° SSE 03:15:50 10° E visible
29 Jan 9.7 05:15:14 17° WSW 05:31:26 64° SSE 05:41:42 10° E visible
30 Jan 11.0 01:51:17 30° SE 01:51:17 30° SE 02:03:17 10° E visible
30 Jan 10.0 04:08:37 35° SW 04:18:30 57° SSE 04:30:50 10° E visible
30 Jan 9.3 06:29:23 10° W 06:46:57 71° S 06:55:36 10° E visible
31 Jan 11.4 00:44:32 16° ESE 00:44:32 16° ESE 00:48:49 10° E visible
31 Jan 10.4 03:01:51 46° S 03:05:03 48° SSE 03:19:25 10° E visible
31 Jan 9.6 05:19:10 21° WSW 05:34:30 69° S 05:45:04 10° E visible
